Time,TemperatureF,DewpointF,PressureIn,WindDirection,WindDirectionDegrees,WindSpeedMPH,WindSpeedGustMPH,Humidity,HourlyPrecipIn,Conditions,Clouds,dailyrainin,SoftwareType,DateUTC
2013-01-03 00:02:00,48.3,45.0,30.32,ENE,67,0.0,1.0,88,0.00,,,0.00,weatherlink.com 1.10,2013-01-02 23:02:00,
2013-01-03 00:17:00,48.4,45.0,30.32,NE,52,0.0,1.0,87,0.00,,,0.00,weatherlink.com 1.10,2013-01-02 23:17:00,
2013-01-03 00:32:00,49.2,45.0,30.32,ENE,64,1.0,2.0,86,0.00,,,0.00,weatherlink.com 1.10,2013-01-02 23:32:00,
2013-01-03 00:47:00,49.5,45.0,30.32,ENE,58,0.0,2.0,85,0.00,,,0.00,weatherlink.com 1.10,2013-01-02 23:47:00,
2013-01-03 01:02:00,49.3,44.0,30.33,ENE,64,3.0,4.0,82,0.00,,,0.00,weatherlink.com 1.10,2013-01-03 00:02:00,
2013-01-03 01:18:00,49.1,44.0,30.34,East,87,4.0,5.0,81,0.00,,,0.00,weatherlink.com 1.10,2013-01-03 00:18:00,
2013-01-03 01:33:00,48.3,43.0,30.34,ESE,102,5.0,5.0,82,0.00,,,0.00,weatherlink.com 1.10,2013-01-03 00:33:00,
2013-01-03 01:48:00,47.7,43.0,30.35,NE,53,4.0,6.0,83,0.00,,,0.00,weatherlink.com 1.10,2013-01-03 00:48:00,
2013-01-03 02:03:00,47.4,43.0,30.36,ENE,72,3.0,6.0,84,0.00,,,0.00,weatherlink.com 1.10,2013-01-03 01:03:00,
2013-01-03 02:18:00,47.3,43.0,30.36,ENE,74,5.0,7.0,84,0.00,,,0.00,weatherlink.com 1.10,2013-01-03 01:18:00,
2013-01-03 02:33:00,46.9,42.0,30.37,ENE,58,2.0,4.0,84,0.00,,,0.00,weatherlink.com 1.10,2013-01-03 01:33:00,
2013-01-03 02:48:00,46.7,43.0,30.37,ENE,71,1.0,4.0,85,0.00,,,0.00,weatherlink.com 1.10,2013-01-03 01:48:00,
2013-01-03 03:03:00,46.3,42.0,30.38,ENE,72,0.0,0.0,85,0.00,,,0.00,weatherlink.com 1.10,2013-01-03 02:03:00,
2013-01-03 03:18:00,46.2,42.0,30.38,ENE,67,1.0,3.0,85,0.00,,,0.00,weatherlink.com 1.10,2013-01-03 02:18:00,
2013-01-03 03:33:00,46.2,42.0,30.39,ENE,72,1.0,2.0,85,0.00,,,0.00,weatherlink.com 1.10,2013-01-03 02:33:00,
2013-01-03 03:48:00,46.2,42.0,30.39,NE,56,3.0,4.0,86,0.00,,,0.00,weatherlink.com 1.10,2013-01-03 02:48:00,
2013-01-03 04:03:00,46.5,42.0,30.40,ENE,78,3.0,4.0,85,0.00,,,0.00,weatherlink.com 1.10,2013-01-03 03:03:00,
2013-01-03 04:18:00,46.5,42.0,30.40,ENE,78,4.0,5.0,84,0.00,,,0.00,weatherlink.com 1.10,2013-01-03 03:18:00,
2013-01-03 04:33:00,46.3,41.0,30.41,East,89,4.0,4.0,83,0.00,,,0.00,weatherlink.com 1.10,2013-01-03 03:33:00,
2013-01-03 04:48:00,46.1,41.0,30.41,ENE,67,4.0,5.0,83,0.00,,,0.00,weatherlink.com 1.10,2013-01-03 03:48:00,
2013-01-03 05:03:00,46.0,41.0,30.41,ENE,78,2.0,4.0,83,0.00,,,0.00,weatherlink.com 1.10,2013-01-03 04:03:00,
2013-01-03 05:18:00,45.8,41.0,30.41,ENE,73,2.0,3.0,83,0.00,,,0.00,weatherlink.com 1.10,2013-01-03 04:18:00,
2013-01-03 05:33:00,45.5,41.0,30.41,ENE,78,2.0,3.0,83,0.00,,,0.00,weatherlink.com 1.10,2013-01-03 04:33:00,
2013-01-03 05:48:00,45.4,41.0,30.42,ENE,78,2.0,5.0,83,0.00,,,0.00,weatherlink.com 1.10,2013-01-03 04:48:00,
2013-01-03 06:03:00,45.4,41.0,30.43,NE,55,3.0,4.0,83,0.00,,,0.00,weatherlink.com 1.10,2013-01-03 05:03:00,
2013-01-03 06:18:00,45.3,40.0,30.43,ENE,76,2.0,3.0,83,0.00,,,0.00,weatherlink.com 1.10,2013-01-03 05:18:00,
2013-01-03 06:33:00,45.5,41.0,30.44,ENE,67,1.0,3.0,83,0.00,,,0.00,weatherlink.com 1.10,2013-01-03 05:33:00,
2013-01-03 06:48:00,45.6,41.0,30.45,NE,49,3.0,5.0,83,0.00,,,0.00,weatherlink.com 1.10,2013-01-03 05:48:00,
2013-01-03 07:03:00,45.4,41.0,30.45,ENE,63,2.0,3.0,83,0.00,,,0.00,weatherlink.com 1.10,2013-01-03 06:03:00,
2013-01-03 07:18:00,45.3,40.0,30.46,ENE,63,3.0,4.0,83,0.00,,,0.00,weatherlink.com 1.10,2013-01-03 06:18:00,
2013-01-03 07:33:00,45.3,40.0,30.46,NE,46,2.0,4.0,83,0.00,,,0.00,weatherlink.com 1.10,2013-01-03 06:33:00,
2013-01-03 07:48:00,45.4,41.0,30.47,East,81,2.0,5.0,83,0.00,,,0.00,weatherlink.com 1.10,2013-01-03 06:48:00,
2013-01-03 08:04:00,45.3,40.0,30.48,NE,39,3.0,4.0,83,0.00,,,0.00,weatherlink.com 1.10,2013-01-03 07:04:00,
2013-01-03 08:19:00,45.3,40.0,30.49,East,79,3.0,4.0,83,0.00,,,0.00,weatherlink.com 1.10,2013-01-03 07:19:00,
2013-01-03 08:34:00,45.4,41.0,30.50,East,79,5.0,6.0,83,0.00,,,0.00,weatherlink.com 1.10,2013-01-03 07:34:00,
2013-01-03 08:49:00,45.8,41.0,30.50,ENE,75,2.0,6.0,83,0.00,,,0.00,weatherlink.com 1.10,2013-01-03 07:49:00,
2013-01-03 09:04:00,46.3,41.0,30.51,NE,51,2.0,6.0,82,0.00,,,0.00,weatherlink.com 1.10,2013-01-03 08:04:00,
2013-01-03 09:19:00,47.0,42.0,30.51,ENE,67,3.0,4.0,82,0.00,,,0.00,weatherlink.com 1.10,2013-01-03 08:19:00,
2013-01-03 09:34:00,47.7,42.0,30.52,ENE,70,3.0,6.0,80,0.00,,,0.00,weatherlink.com 1.10,2013-01-03 08:34:00,
2013-01-03 09:49:00,48.0,42.0,30.52,NE,54,4.0,7.0,79,0.00,,,0.00,weatherlink.com 1.10,2013-01-03 08:49:00,
2013-01-03 10:04:00,48.5,42.0,30.53,East,86,5.0,6.0,79,0.00,,,0.00,weatherlink.com 1.10,2013-01-03 09:04:00,
2013-01-03 10:19:00,48.9,42.0,30.53,NE,46,4.0,6.0,78,0.00,,,0.00,weatherlink.com 1.10,2013-01-03 09:19:00,
2013-01-03 10:34:00,49.5,43.0,30.53,NE,52,5.0,6.0,78,0.00,,,0.00,weatherlink.com 1.10,2013-01-03 09:34:00,
2013-01-03 10:49:00,50.1,43.0,30.53,ENE,75,1.0,4.0,77,0.00,,,0.00,weatherlink.com 1.10,2013-01-03 09:49:00,
2013-01-03 11:04:00,50.6,43.0,30.53,ENE,68,4.0,5.0,76,0.00,,,0.00,weatherlink.com 1.10,2013-01-03 10:04:00,
2013-01-03 11:19:00,51.2,44.0,30.52,NE,48,5.0,5.0,75,0.00,,,0.00,weatherlink.com 1.10,2013-01-03 10:19:00,
2013-01-03 11:34:00,51.6,44.0,30.52,ENE,72,5.0,6.0,74,0.00,,,0.00,weatherlink.com 1.10,2013-01-03 10:34:00,
2013-01-03 11:49:00,52.1,44.0,30.51,NE,56,3.0,5.0,73,0.00,,,0.00,weatherlink.com 1.10,2013-01-03 10:49:00,
2013-01-03 12:04:00,52.7,44.0,30.51,NE,44,2.0,4.0,73,0.00,,,0.00,weatherlink.com 1.10,2013-01-03 11:04:00,
2013-01-03 12:19:00,53.2,44.0,30.51,NNE,29,3.0,5.0,72,0.00,,,0.00,weatherlink.com 1.10,2013-01-03 11:19:00,
2013-01-03 12:34:00,53.8,45.0,30.51,ENE,76,3.0,4.0,72,0.00,,,0.00,weatherlink.com 1.10,2013-01-03 11:34:00,
2013-01-03 12:49:00,54.4,45.0,30.50,ENE,60,1.0,4.0,70,0.00,,,0.00,weatherlink.com 1.10,2013-01-03 11:49:00,
2013-01-03 13:04:00,55.0,46.0,30.50,ENE,64,1.0,3.0,71,0.00,,,0.00,weatherlink.com 1.10,2013-01-03 12:04:00,
2013-01-03 13:19:00,55.3,45.0,30.49,ENE,67,1.0,4.0,69,0.00,,,0.00,weatherlink.com 1.10,2013-01-03 12:19:00,
2013-01-03 13:34:00,55.8,45.0,30.49,East,84,2.0,4.0,67,0.00,,,0.00,weatherlink.com 1.10,2013-01-03 12:34:00,
2013-01-03 13:49:00,56.2,45.0,30.49,NNE,32,1.0,4.0,66,0.00,,,0.00,weatherlink.com 1.10,2013-01-03 12:49:00,
2013-01-03 14:04:00,56.6,45.0,30.49,NE,55,0.0,3.0,66,0.00,,,0.00,weatherlink.com 1.10,2013-01-03 13:04:00,
2013-01-03 14:19:00,56.9,45.0,30.49,ENE,75,1.0,3.0,65,0.00,,,0.00,weatherlink.com 1.10,2013-01-03 13:19:00,
2013-01-03 14:34:00,57.1,45.0,30.49,ENE,58,0.0,2.0,64,0.00,,,0.00,weatherlink.com 1.10,2013-01-03 13:34:00,
2013-01-03 14:49:00,57.3,46.0,30.49,NE,51,0.0,2.0,65,0.00,,,0.00,weatherlink.com 1.10,2013-01-03 13:49:00,
2013-01-03 15:05:00,57.5,45.0,30.49,ENE,71,0.0,1.0,64,0.00,,,0.00,weatherlink.com 1.10,2013-01-03 14:05:00,
2013-01-03 15:20:00,57.7,45.0,30.49,ENE,67,0.0,1.0,63,0.00,,,0.00,weatherlink.com 1.10,2013-01-03 14:20:00,
2013-01-03 15:35:00,57.8,46.0,30.50,ENE,68,0.0,2.0,64,0.00,,,0.00,weatherlink.com 1.10,2013-01-03 14:35:00,
2013-01-03 15:50:00,57.7,46.0,30.50,ENE,60,0.0,1.0,65,0.00,,,0.00,weatherlink.com 1.10,2013-01-03 14:50:00,
2013-01-03 16:05:00,57.4,46.0,30.50,ENE,60,0.0,0.0,66,0.00,,,0.00,weatherlink.com 1.10,2013-01-03 15:05:00,
2013-01-03 16:20:00,56.9,46.0,30.50,ENE,60,0.0,0.0,68,0.00,,,0.00,weatherlink.com 1.10,2013-01-03 15:20:00,
2013-01-03 16:35:00,55.9,47.0,30.50,ENE,60,0.0,0.0,71,0.00,,,0.00,weatherlink.com 1.10,2013-01-03 15:35:00,
2013-01-03 16:50:00,55.0,46.0,30.50,ENE,60,0.0,0.0,73,0.00,,,0.00,weatherlink.com 1.10,2013-01-03 15:50:00,
2013-01-03 17:05:00,54.0,46.0,30.51,ENE,60,0.0,0.0,74,0.00,,,0.00,weatherlink.com 1.10,2013-01-03 16:05:00,
2013-01-03 17:20:00,52.9,46.0,30.51,ENE,60,0.0,0.0,78,0.00,,,0.00,weatherlink.com 1.10,2013-01-03 16:20:00,
2013-01-03 17:35:00,52.1,46.0,30.51,ENE,60,0.0,0.0,80,0.00,,,0.00,weatherlink.com 1.10,2013-01-03 16:35:00,
2013-01-03 17:50:00,51.8,46.0,30.51,ENE,60,0.0,0.0,80,0.00,,,0.00,weatherlink.com 1.10,2013-01-03 16:50:00,
2013-01-03 18:20:00,49.9,45.0,30.52,ENE,60,0.0,0.0,82,0.00,,,0.00,weatherlink.com 1.10,2013-01-03 17:20:00,
2013-01-03 18:35:00,49.0,44.0,30.52,ENE,60,0.0,0.0,84,0.00,,,0.00,weatherlink.com 1.10,2013-01-03 17:35:00,
2013-01-03 18:50:00,48.3,44.0,30.53,ENE,60,0.0,0.0,86,0.00,,,0.00,weatherlink.com 1.10,2013-01-03 17:50:00,
2013-01-03 19:05:00,48.1,44.0,30.53,ENE,63,0.0,0.0,86,0.00,,,0.00,weatherlink.com 1.10,2013-01-03 18:05:00,
2013-01-03 19:20:00,47.4,44.0,30.53,East,89,0.0,0.0,87,0.00,,,0.00,weatherlink.com 1.10,2013-01-03 18:20:00,
2013-01-03 19:35:00,46.6,43.0,30.53,East,89,0.0,0.0,86,0.00,,,0.00,weatherlink.com 1.10,2013-01-03 18:35:00,
2013-01-03 19:50:00,46.7,43.0,30.52,SE,138,0.0,0.0,88,0.00,,,0.00,weatherlink.com 1.10,2013-01-03 18:50:00,
2013-01-03 20:05:00,46.3,43.0,30.53,SE,138,0.0,0.0,87,0.00,,,0.00,weatherlink.com 1.10,2013-01-03 19:05:00,
2013-01-03 21:05:00,44.0,41.0,30.53,SE,138,0.0,0.0,89,0.00,,,0.00,weatherlink.com 1.10,2013-01-03 20:05:00,
2013-01-03 21:20:00,43.9,41.0,30.53,SE,138,0.0,0.0,90,0.00,,,0.00,weatherlink.com 1.10,2013-01-03 20:20:00,
2013-01-03 21:35:00,43.3,40.0,30.54,SE,138,0.0,0.0,89,0.00,,,0.00,weatherlink.com 1.10,2013-01-03 20:35:00,
2013-01-03 21:50:00,42.9,40.0,30.54,SE,138,0.0,0.0,89,0.00,,,0.00,weatherlink.com 1.10,2013-01-03 20:50:00,
2013-01-03 22:05:00,42.9,41.0,30.54,SE,138,0.0,0.0,91,0.00,,,0.00,weatherlink.com 1.10,2013-01-03 21:05:00,
2013-01-03 22:20:00,41.9,39.0,30.54,SE,138,0.0,0.0,90,0.00,,,0.00,weatherlink.com 1.10,2013-01-03 21:20:00,
2013-01-03 22:35:00,41.7,39.0,30.54,SE,138,0.0,0.0,91,0.00,,,0.00,weatherlink.com 1.10,2013-01-03 21:35:00,
2013-01-03 22:50:00,40.8,38.0,30.54,SE,138,0.0,0.0,91,0.00,,,0.00,weatherlink.com 1.10,2013-01-03 21:50:00,
2013-01-03 23:05:00,41.4,39.0,30.54,SSE,150,0.0,0.0,92,0.00,,,0.00,weatherlink.com 1.10,2013-01-03 22:05:00,
2013-01-03 23:20:00,41.2,39.0,30.54,SSE,150,0.0,0.0,92,0.00,,,0.00,weatherlink.com 1.10,2013-01-03 22:20:00,
2013-01-03 23:35:00,41.1,39.0,30.54,SSE,150,0.0,0.0,92,0.00,,,0.00,weatherlink.com 1.10,2013-01-03 22:35:00,
2013-01-03 23:50:00,40.9,39.0,30.54,SSE,150,0.0,0.0,91,0.00,,,0.00,weatherlink.com 1.10,2013-01-03 22:50:00,